COSMOS 1137

导读

COSMOS 1137是独联体(CIS)继承自苏联航天体系的“宇宙”系列卫星,于1979年9月25日发射入轨。作为冷战时期苏联太空活动的组成部分,该系列卫星多承担军事侦察、空间技术验证等任务,推动了当时航天侦察技术的发展,是苏联航天发展历程中的典型航天器,见证了冷战时期太空竞赛背景下的航天技术探索。

Basic Information
目录编号:
11545
目录名称:
COSMOS 1137
国际标识:
1979-084H
轨道中心:
EARTH
卫星名称:
COSMOS 1137
卫星全名:
--
卫星状态:
在轨 (已飞行17156 天)
发射日期:
1979-09-25 UTC
国别 :
俄罗斯(独联体) (CIS)
星等 :
--
This satellite is enrolled in the Space Conjunction Data Service (SCDS) and the current flight risk assessment level is: No High Risk
Orbit Information
数据来源 国际轨道数据 AOE轨道数据
星历时间 2026-09-13T23:53:19+0800
14小时前
查看轨道信息
2026-09-12T23:00:00+0800
1天前
查看轨道信息
半长轴 7871.207km 7871.192km
偏心率 0.0026753 0.002757
轨道倾角 74.024° 74.024°
近地点辐角 340.058° 342.191°
升交点赤经 136.821° 138.183°
平近点角 47.506° 85.686°
近地点 1472.012km 1471.354km
远地点 1514.128km 1514.756km
周期 115.830分钟 115.830分钟
每日圈数 12.431994 12.432031
Detailed Information
使用方式:
暂无
2D Orbit Map
3D Orbit Map
Orbit Altitude Analysis Chart
Orbit Inclination Analysis Chart
Orbit Comprehensive Analysis Chart
View Comprehensive Chart
Conjunction Data List
Event ID Objects TCA Miss Dist (km) Collision Risk Probability Collision Risk Index (CRI) Action
CDM_260912-120901-154504-262524
2026-09-12T
12:09:56+0000
1.547 km
极远距离
4.839184E-6 低风险 0.49
Miss Distance Evolution Trend with All Objects Subscribe to Flight Safety Assessment
Collision Probability Evolution Trend with All Objects Subscribe to Flight Safety Assessment